Location: Golden Pond Observatory
(36.7773°N, 88.0631°W)
Time: 06:42:59
(UTC-06:00)

N. Korean satellite - Visible Passes

Search period start: 21 January 2021 00:00
Search period end: 31 January 2021 00:00
Orbit: 453 x 502 km, 97.2° (Epoch: 20 January)

Date Brightness Start Highest point End Pass type
(mag) Time Alt. Az. Time Alt. Az. Time Alt. Az.
21 Jan 6.3 05:17:56 10° NNE 05:21:25 88° ESE 05:24:50 10° SSW visible
22 Jan 8.1 04:51:37 10° NNE 04:54:49 34° E 04:57:57 10° SSE visible
22 Jan 8.4 06:26:45 10° NW 06:27:45 11° WNW 06:28:46 10° W visible
23 Jan 9.5 04:26:03 10° ENE 04:28:06 15° E 04:30:09 10° SE visible
23 Jan 7.5 05:58:35 10° NNW 06:01:24 23° WNW 06:04:11 10° SW visible
24 Jan 6.4 05:31:33 10° N 05:34:57 56° WNW 05:38:17 10° SSW visible
24 Jan 10.0 17:38:55 10° WSW 17:40:39 13° W 17:42:23 10° WNW visible
25 Jan 7.1 05:05:00 10° NNE 05:08:23 55° E 05:11:43 10° S visible
26 Jan 8.9 04:38:57 10° NE 04:41:43 22° E 04:44:28 10° SSE visible
26 Jan 8.0 06:12:41 10° NNW 06:14:50 16° WNW 06:16:58 10° WSW visible
27 Jan 7.0 05:45:16 10° N 05:48:25 35° WNW 05:51:32 10° SW visible
28 Jan 6.3 05:18:27 10° N 05:21:54 89° WSW 05:25:17 10° SSW visible
29 Jan 8.1 04:52:07 10° NNE 04:55:16 34° E 04:58:24 10° SSE visible
29 Jan 8.5 06:27:27 10° NW 06:28:13 11° WNW 06:28:58 10° W visible
30 Jan 9.5 04:26:28 10° NE 04:28:34 15° E 04:30:37 10° SE visible
30 Jan 7.6 05:59:06 10° NNW 06:01:50 23° WNW 06:04:34 10° SW visible
